Terminal Aerodrome Forecast
Issued by NWS

Home | Current Version | Previous Version | Text Only | Print | Product List | Glossary On
Versions: 1 2 3 4 5 6 7 8 9 10 11 12 13 14 15 16 17 18 19 20
000
FTAK31 PAFA 250530
TAFASC
TAF
PASC 250530Z 2506/2606 15007KT P6SM BKN070 BKN090 OVC100
     FM260100 13008KT P6SM -SHSN OVC025=

USA.gov is the U.S. government's official web portal to all federal, state and local government web resources and services.